Starlink 31991

operational
NORAD ID: 59963 Int'l Des: 2024-107 Owner: SPXS Country: US Constellation: starlink
LEOCIRCULAR

Starlink 31991について

説明を読み込み中...

リアルタイム位置

3D地球を読み込み中...

次回通過

高度履歴

Altitude vs Time

uPlot chart will show altitude changes over time

軌道要素

1 59963U 24107U 25260.97743973 .00001319 00000-0 56655-4 0 9995
2 59963 53.1606 147.7492 0001184 104.0984 256.0149 15.30194469 73356
Epoch: Sep 17, 2025 • Age: 20 hours

現在のステータス

高度 493.8 km
速度 7.62 km/s
衛星直下点 -51.57°S, 104.97°E
打ち上げ日 Jun 5, 2024
運用期間 1.2 years
タイプ internet

技術仕様

分類 Payload
質量 730.00 kg
乾燥質量 700.00 kg
総質量 730.00 kg
長さ 0.30 m
直径 4.10 m
スパン 29.00 m
形状 Box + pan
製造者 SPXS
バスタイプ Starlink V2M
フェーズステータス In Orbit
所有者/国 SPXS/US

大規模コンステレーション

Loading constellations...